Regional Weather Roundup
Issued by NWS Green Bay, WI

Home | Current Version | Previous Version | Text Only | Print | Product List | Glossary On
Versions: 1 2 3 4 5 6 7 8 9 10 11 12 13 14 15 16 17 18 19 20 21 22 23 24 25 26 27 28 29 30 31 32 33 34 35 36 37 38 39 40 41 42 43 44 45 46 47 48 49 50
000
ASUS43 KGRB 260911
RWRGRB

NORTH-CENTRAL AND NORTHEAST WISCONSIN REGIONAL WEATHER ROUNDUP
NATIONAL WEATHER SERVICE GREEN BAY WI
400 AM CDT WED JUL 26 2017

WIZ005-009-010>012-018-019-261000-
NORTH CENTRAL WISCONSIN

CITY           SKY/WX    TMP DP  RH WIND       PRES   REMARKS
IRONWOOD       CLOUDY    71  67  87 SW7       29.93S
MANITOWISH WTR CLOUDY    68  68 100 SW5       29.96S
ARBOR VITAE    CLOUDY    72  70  93 SW8       29.96S
EAGLE RIVER    CLOUDY    68  66  93 SW7       29.97R
LAND O LAKES   CLOUDY    69  65  88 SW5       29.99R
RHINELANDER    CLOUDY    68  67  96 SW12G20   29.98F
PHILLIPS       CLOUDY    69  68  99 SW8       29.97S
ANTIGO         LGT RAIN  66  66 100 SW12G18   30.03F
TOMAHAWK         N/A     66  65  94 S3        29.99F
MERRILL        NOT AVBL
$$

WIZ013-073-261000-
NORTHEAST WISCONSIN

CITY           SKY/WX    TMP DP  RH WIND       PRES   REMARKS
IRON MOUNTAIN  CLOUDY    67  62  84 S6        29.96F
MARINETTE      CLOUDY    70  62  76 SW10G21   29.99F
OCONTO         CLOUDY    67  62  86 SW8       30.01R
$$

WIZ017-030-035>037-045-261000-
CENTRAL WISCONSIN

CITY           SKY/WX    TMP DP  RH WIND       PRES   REMARKS
MEDFORD        CLOUDY    67  66  96 S9        29.99F
WAUSAU         LGT RAIN  67  67 100 SE10      29.98F FOG
MOSINEE        LGT RAIN  66  64  94 SE5       30.03F
MARSHFIELD     CLOUDY    69  66  90 SW10      30.01F
WISC RAPIDS    CLOUDY    70  66  87 NE8       30.05R
STEVENS POINT  LGT RAIN  66  65  98 SE8       30.03F
WAUPACA        CLOUDY    69  63  79 CALM      30.04R
SHAWANO        LGT RAIN  68  64  86 SW5       30.05R
CLINTONVILLE   LGT RAIN N/A N/A N/A W5        30.07R
WAUTOMA        CLOUDY    67  63  87 S5        30.04S
$$

WIZ038-039-048-051-261000-
FOX VALLEY

CITY           SKY/WX    TMP DP  RH WIND       PRES   REMARKS
NWS GREEN BAY  CLOUDY    66  63  90 W3        30.04R
APPLETON       CLOUDY    66  57  72 SW9       30.03S
OSHKOSH        CLOUDY    68  61  78 S12       30.03F
FOND DU LAC    CLOUDY    69  58  67 S10       30.05F
$$

WIZ022-050-052-261000-
EAST CENTRAL WISCONSIN

CITY           SKY/WX    TMP DP  RH WIND       PRES   REMARKS
EPHRAIM        FAIR      66  61  82 SW6       29.98F
WASHINGTON ISL CLOUDY    65  64  94 S10G18    29.98F
STURGEON BAY   LGT RAIN  65  62  90 SW16G23   30.01S
MANITOWOC      CLOUDY    69  58  67 S10       30.05F
SHEBOYGAN      MOCLDY    67  60  78 S12       30.06F
$$

LMZ563-521-522-541>543-261000-
LAKESHORE

STATION/POSITION TIME  TEMP    WIND        PRES    VSBY  WAVE
                       AIR SEA DIR/SP/G                  HT/PER
                 (UTC) (F)     (DEG/KT/KT) (MB)    (MI)  (FT/S)
SHEBOYGAN LKSHOR 0900   71     200/ 15/ 17 1017.3F
KEWAUNEE LKSHORE 0848   67     180/ 11/ 13 1016.4F
NORTHPORT PIER   0840   67     160/  6/  7 1015.6F
N MID LAKE BUOY  0850   66 66  180/ 19/ 25 1016.2F         3/ 5
S GREEN BAY BUOY 0900   71 72  200/ 21/ 29 1015.4
SISTER BAY LKSHO 0902   69     200/  9/ 11   N/A
CHAMBERS ISLAND  0840   69     180/  8/ 18 1014.6F
MENOMINEE LKSHOR 0848   71     210/ 15/ 22 1015.1F
$$




USA.gov is the U.S. government's official web portal to all federal, state and local government web resources and services.